Overview Statistics Trail Chart Weather Telemetry Raw packets
 

This is the latest recevied weather packets stored in our database for station/object OK1VOF-13. If no packets are shown the sender has not sent any weather packets the latest 10 day(s).

<< 57 58 59 60 61 62 63 >>
Time Temp. Humidity Pressure Rain* Wind** Luminosity Snow
1787816626 18.89° C 74% 1022.2 hPa 0 mm - - -
1787816327 18.89° C 75% 1022.2 hPa 0 mm - - -
1787816028 18.33° C 75% 1022.1 hPa 0 mm - - -
1787815726 18.33° C 76% 1022.1 hPa 191.01 mm - - -
1787814820 17.78° C 77% 1022.1 hPa 65.28 mm - - -
1787813914 17.22° C 77% 1022.1 hPa 168.91 mm - - -
1787813606 17.22° C 77% 1022.1 hPa 168.91 mm - - -
1787813002 17.22° C 78% 1022.1 hPa 168.91 mm - - -
1787811031 16.11° C 79% 1021.9 hPa 103.38 mm - - -
1787809925 15.56° C 80% 1021.8 hPa 0 mm - - -
1787808736 15° C 79% 1021.8 hPa 0 mm - - -
1787808132 15° C 78% 1021.8 hPa 0 mm - - -
1787807536 14.44° C 78% 1021.7 hPa 0 mm - - -
1787806937 14.44° C 78% 1021.7 hPa 0 mm - - -
1787806645 14.44° C 78% 1021.7 hPa 0 mm - - -
1787806346 14.44° C 77% 1021.8 hPa 0 mm - - -
1787805742 14.44° C 77% 1021.7 hPa 0 mm - - -
1787805450 14.44° C 77% 1021.7 hPa 0 mm - - -
1787804852 14.44° C 77% 1021.7 hPa 0 mm - - -
1787803059 15° C 76% 1021.7 hPa 0 mm - - -
1787802455 15° C 76% 1021.6 hPa 0 mm - - -
1787801864 15° C 76% 1021.6 hPa 0 mm - - -
1787800662 15° C 75% 1021.5 hPa 0 mm - - -
1787800363 15° C 75% 1021.5 hPa 0 mm - - -
1787800065 15° C 75% 1021.6 hPa 0 mm - - -

* Rain latest hour (hover to see other rain measurements)
** Current wind speed in m/s (hover to see current wind gust speed)